MMS 1 (40482 NORAD) Tracking and Keplerian Element Data

This shows tracking and keplerian element data for the satellite.

Feedback or suggestion? Click here.




ElementValue
Catalog40482
NameMMS 1
Epoch Orbit947
Epoch Day313.84375
Epoch Year2018
RAAN355.0671
Inclination2.0058
Eccentricity0.9063809
Argument of Perigee129.3207
Mean Anonmoly351.5825
Mean Motion0.35524327
Decay Rate-4.29E-06
L11 40482U 15011A 18313.84375000 -.00000429 00000-0 00000+0 0 9994
L22 40482 2.0058 355.0671 9063809 129.3207 351.5825 0.35524327 9471

Live tracking and technical data element details for MMS 1 (NORAD 40482). MMS 1 can be tracked NOW for your location showing map with azimuth and elevation plus other details from your city location.

Track the satellite on the map from your city or location and see movement details for azimuth, elevation, latitude, longitude, range, height, and movement on the map or in text.







IsCatalogInMostPopularTable: catalog: 40482, numindb: 103
Update: records affected: 1



GetName: 40482 MMS 1

Hit Count: updated at: Fri, 16 Nov 2018 05:22:31 GMT